Theta_e
306 306 306 306 306 305 306 307 307 306 304 303 302 302 302 301 301 296 292 292 293 288 287 288 289 284 283 282 278 282 282 284 283 280 285 283 281 282 278 283 282 277 280 279 282 279 275 292 291 285 289 296 296 296
306 305 305 305 305 305 306 307 307 306 304 303 302 302 302 301 301 300 290 294 295 291 286 289 291 292 291 289 284 283 282 283 285 280 280 281 278 281 281 273 285 278 282 278 279 278 286 291 292 295 298 296 294 293
306 306 305 305 305 305 306 306 307 306 304 303 302 301 301 302 301 300 294 295 293 289 284 283 285 289 292 292 292 282 283 288 288 293 290 287 284 286 278 280 282 286 288 284 285 286 289 293 295 297 297 295 293 293
306 306 305 305 305 305 306 306 306 305 304 302 301 301 301 302 302 300 295 293 294 290 282 283 292 291 295 292 291 292 290 290 293 295 290 288 285 290 284 283 283 288 289 285 285 289 293 294 296 297 295 293 294 296
305 305 305 305 305 305 306 306 306 305 303 302 301 301 301 301 302 298 294 296 297 287 282 283 289 294 295 293 291 291 291 289 292 292 289 287 287 288 286 289 287 290 288 287 285 292 292 294 296 296 292 292 294 295
304 304 303 303 303 304 305 306 306 304 303 302 301 301 301 301 301 292 287 295 294 295 287 282 287 289 291 293 293 292 292 291 292 293 292 292 295 291 287 284 291 293 296 296 293 297 297 297 297 296 294 293 296 295
304 304 303 303 303 303 304 306 306 304 303 302 301 301 301 301 297 289 286 293 298 296 289 285 282 288 291 292 294 294 292 292 292 292 292 293 293 293 287 285 292 296 297 298 299 298 292 295 292 296 296 295 296 296
303 303 303 303 302 302 303 305 306 303 302 301 300 301 301 302 299 294 297 300 300 293 290 283 281 285 291 287 286 296 295 296 296 294 295 292 293 292 286 291 293 295 297 299 299 297 295 295 295 295 295 294 293 294
303 303 303 302 302 302 303 305 304 301 300 300 300 302 298 294 292 296 304 304 299 294 287 287 283 281 290 287 287 288 298 290 296 291 292 292 290 285 290 290 291 294 298 298 297 295 294 293 293 294 293 293 292 292
303 303 302 302 302 302 303 304 300 298 299 300 297 294 294 296 302 305 299 294 293 293 292 285 290 283 287 286 288 289 292 291 288 291 295 287 286 292 292 292 293 296 301 298 293 291 291 291 292 293 292 293 292 291
303 303 302 302 302 303 304 300 298 298 297 290 287 288 290 297 293 288 285 289 289 286 288 288 288 285 288 286 286 293 289 289 286 290 290 285 284 288 291 291 295 300 300 297 295 294 294 294 294 294 293 291 291 291
303 303 302 303 303 304 302 299 298 294 290 290 290 293 291 290 287 283 283 289 287 284 289 286 284 287 286 288 290 292 288 291 286 294 288 282 287 290 289 291 295 298 299 297 296 294 295 295 296 295 293 292 292 292
303 302 302 302 302 303 300 298 298 297 296 294 290 289 286 285 279 282 280 280 280 285 286 285 283 284 285 290 290 289 286 286 292 286 284 286 288 289 290 292 292 298 301 298 296 296 296 296 296 294 293 293 293 292
303 302 302 302 303 301 299 298 298 297 292 289 287 278 282 282 283 282 280 280 284 285 285 282 282 281 283 284 289 285 288 288 282 277 279 285 286 288 291 290 293 294 301 297 296 296 295 295 294 295 294 293 292 291
302 302 303 303 302 299 298 298 298 294 291 288 286 277 281 285 283 284 284 283 285 284 283 282 284 285 285 286 286 284 282 278 279 277 282 285 288 289 289 290 291 296 299 301 295 294 295 295 295 294 295 294 293 292
303 302 300 302 300 298 298 298 295 293 290 288 285 282 282 282 281 282 283 284 287 285 283 284 282 281 281 282 276 276 273 276 278 281 285 287 287 288 289 290 293 296 298 301 295 295 295 295 294 294 295 294 293 293
301 295 301 300 298 298 298 293 292 290 288 285 282 284 283 282 282 283 284 286 287 284 281 281 279 279 280 272 275 280 277 280 284 285 286 287 286 287 289 291 294 295 298 300 296 295 295 296 296 294 292 293 294 294
293 297 300 298 297 295 293 292 291 289 285 285 282 283 284 284 284 286 287 287 286 285 283 282 282 277 278 270 271 281 284 285 286 286 286 288 289 290 292 291 293 294 297 299 297 296 295 295 294 293 293 293 294 294
296 298 298 298 295 293 290 290 291 285 285 285 286 286 287 286 286 286 285 286 286 286 283 281 279 273 275 281 281 282 284 285 284 286 287 289 290 291 291 292 292 293 294 296 298 294 295 294 294 294 293 293 292 293
299 298 299 298 295 291 290 289 292 285 282 285 287 286 286 285 284 284 283 283 282 281 281 279 280 281 282 286 287 286 285 286 287 285 285 288 290 290 290 291 290 292 292 293 294 294 296 294 294 294 293 292 292 291
295 296 298 293 290 291 289 287 284 285 285 284 287 286 283 284 282 282 281 282 281 280 278 281 282 286 288 290 287 283 286 288 287 288 286 285 288 289 289 290 291 291 290 290 290 291 293 296 293 294 294 292 292 293
293 296 291 292 290 290 287 288 286 286 284 285 286 286 283 282 281 281 281 280 279 283 282 285 286 288 287 288 284 283 284 288 289 290 289 287 286 286 287 289 289 289 288 288 289 290 292 295 294 294 293 292 292 293
296 295 292 292 288 284 282 289 285 285 282 283 285 284 283 282 282 283 278 282 282 286 288 288 288 287 286 287 284 282 284 286 287 288 289 287 287 288 287 288 288 288 286 287 289 290 291 290 294 295 294 294 293 292
296 291 288 286 285 281 287 283 285 283 283 282 282 283 283 282 283 279 278 282 279 283 286 286 287 283 282 282 280 279 280 282 287 288 286 286 285 286 287 287 287 288 287 287 288 289 290 290 290 294 296 293 292 291
283 283 284 278 286 283 282 283 283 282 282 282 283 282 282 284 278 277 278 280 277 277 285 286 284 280 280 280 279 278 279 279 282 285 282 283 284 284 284 286 287 286 286 285 286 286 287 288 289 291 294 295 292 291
277 282 280 283 283 283 283 281 282 282 282 282 283 284 282 280 279 279 277 278 277 279 283 279 278 278 278 279 277 276 277 278 279 280 280 280 281 280 280 281 282 283 285 286 285 284 285 286 287 287 290 291 290 291
275 278 283 288 287 286 283 284 284 282 282 282 283 282 281 278 277 280 281 282 280 281 284 284 283 281 280 278 278 279 278 278 279 280 280 279 280 281 279 279 280 283 284 285 285 284 283 284 284 285 287 289 292 294
283 284 281 283 284 284 282 282 282 282 283 285 284 281 280 278 277 281 282 283 284 284 283 283 283 282 280 279 278 277 277 277 279 279 278 278 279 280 280 281 282 283 284 284 284 283 282 282 283 284 285 287 289 293
283 285 285 282 283 282 283 283 284 285 287 286 282 281 281 282 280 278 282 283 283 282 280 280 280 280 279 279 279 277 277 275 277 275 274 273 274 276 278 279 280 282 281 281 282 282 281 281 283 284 285 287 289 292
282 286 283 284 282 282 285 287 285 285 285 285 284 282 280 279 280 283 282 282 281 280 280 281 279 278 276 277 276 277 277 277 274 274 271 271 272 276 277 278 279 280 280 279 279 279 279 280 281 283 283 284 284 284
285 285 284 284 284 286 285 286 286 286 285 282 283 281 279 280 282 283 280 280 280 279 280 278 277 278 278 277 276 276 275 276 276 277 276 276 275 276 277 278 278 279 279 278 277 277 276 277 278 278 279 279 280 281
284 283 283 281 283 286 288 285 283 282 282 281 280 281 281 279 277 280 281 281 280 279 278 278 278 278 278 278 278 277 277 278 278 278 278 277 276 276 276 276 278 279 278 277 276 276 275 274 275 275 276 277 278 279
283 285 285 284 284 284 286 285 283 281 281 280 280 281 279 278 275 278 283 281 279 279 277 278 278 279 279 279 279 278 277 278 277 277 276 276 275 275 275 275 277 278 277 277 276 275 274 273 273 272 273 274 275 278
Wind_Speed
16 14 14 12 11 9 9 11 10 9 8 8 8 8 9 9 8 2 3 4 2 3 8 6 3 5 1 3 3 5 5 3 4 4 3 3 3 2 3 3 3 3 3 3 3 4 8 2 1 4 5 16 19 9
17 15 14 12 11 10 10 10 10 9 8 8 7 8 10 8 7 4 2 2 2 4 7 3 14 17 14 11 5 3 4 0 3 2 2 1 3 3 1 3 3 3 5 4 8 8 5 4 8 7 13 12 13 20
18 16 14 13 11 10 9 10 10 10 9 9 7 7 10 9 8 5 3 1 1 3 5 3 5 2 5 15 8 4 3 4 1 3 2 2 4 1 3 5 2 4 3 4 2 7 8 7 7 12 7 11 14 14
18 16 15 14 12 10 9 9 10 11 10 10 7 9 10 10 9 6 1 2 1 2 4 8 3 8 5 6 10 14 2 2 1 2 2 3 3 4 4 5 3 7 3 4 8 13 11 13 10 13 7 11 16 17
18 16 12 12 11 9 9 9 10 11 11 11 9 10 9 8 8 3 3 4 5 3 3 7 11 3 4 4 8 11 14 6 2 2 3 3 3 1 3 3 4 2 3 3 5 14 15 15 14 9 7 19 19 22
20 17 15 14 12 10 9 10 11 11 11 12 11 10 9 7 5 2 2 1 3 2 2 4 5 6 5 7 7 10 10 5 3 3 3 3 3 2 3 3 7 9 10 11 6 11 14 14 12 7 16 24 18 14
21 19 18 17 14 12 12 12 12 11 10 12 12 10 9 7 2 3 3 2 7 3 2 4 5 5 6 4 2 2 4 3 4 3 4 3 3 4 2 4 7 12 12 15 13 8 6 7 15 15 14 16 14 14
23 21 19 18 16 13 13 14 11 9 9 13 13 12 11 9 4 4 3 11 8 2 2 2 5 5 5 4 4 1 3 2 3 3 2 2 1 1 4 7 18 22 21 15 8 6 7 13 18 14 13 13 15 12
25 23 22 19 17 16 15 14 8 4 9 13 15 8 3 2 3 3 3 7 3 2 2 1 2 5 5 3 2 4 1 2 1 2 3 2 1 3 10 18 20 20 15 13 9 7 12 16 17 12 11 12 13 13
27 25 23 19 17 15 15 10 5 4 9 15 2 2 3 2 5 7 2 2 2 1 1 2 2 5 2 2 3 2 1 2 2 3 3 1 1 7 14 20 16 19 10 9 6 8 14 17 17 16 13 11 11 12
26 24 22 19 16 15 12 11 5 3 5 1 3 2 1 4 2 1 1 2 2 2 3 3 4 4 2 2 4 3 2 2 3 0 2 2 4 15 21 24 22 17 5 6 5 6 9 13 14 14 15 15 13 14
26 25 22 19 16 13 15 12 7 2 2 2 2 2 0 2 1 2 3 3 3 3 3 4 5 5 4 2 3 2 2 2 2 3 2 3 6 19 19 23 23 22 10 8 5 9 12 13 13 10 10 11 13 12
26 24 22 18 15 15 16 12 9 6 2 1 2 2 2 2 2 3 4 1 1 3 3 2 4 2 4 1 3 2 3 2 2 4 3 2 12 18 20 20 22 21 15 9 6 8 13 13 14 12 12 11 11 10
26 23 21 18 15 19 16 12 10 5 2 3 4 3 4 3 4 4 4 4 4 3 3 1 2 1 2 2 2 2 2 3 3 4 4 6 17 20 20 20 20 23 18 10 6 6 9 11 11 11 13 12 13 13
25 21 19 16 19 18 15 11 9 2 2 3 3 4 4 2 1 2 2 1 2 1 1 2 2 2 2 3 3 4 4 4 4 3 4 10 18 19 20 20 21 19 17 13 5 5 7 9 10 12 11 12 13 13
22 15 7 21 20 17 14 9 3 2 2 2 3 2 1 3 1 2 1 2 1 1 1 3 2 3 4 3 5 5 3 3 4 6 8 12 17 18 19 19 20 18 17 13 5 4 6 10 11 10 10 12 13 13
16 3 19 22 20 15 14 3 2 4 3 3 3 1 2 2 3 2 1 2 2 2 2 2 4 1 2 4 4 3 3 4 7 8 8 13 15 17 18 18 18 18 17 13 6 5 5 6 9 11 14 12 11 12
3 10 24 25 15 9 1 2 2 3 4 3 3 3 2 2 3 2 1 2 1 2 2 2 3 5 3 3 2 2 2 5 5 7 9 12 14 14 13 16 17 17 16 14 9 6 6 7 9 7 8 9 8 9
10 14 25 25 8 4 4 3 2 3 4 2 2 2 3 4 3 2 1 2 3 3 4 3 4 2 1 1 1 2 4 5 6 7 8 11 11 12 14 14 15 16 16 15 13 8 4 6 5 5 6 7 7 7
22 23 21 13 2 2 3 2 2 2 3 3 3 3 4 3 3 3 3 3 3 3 4 3 2 2 1 0 1 2 4 5 5 5 7 7 8 11 12 12 11 13 11 13 11 12 9 5 4 5 5 6 6 8
16 11 10 2 1 1 0 2 1 4 3 3 3 3 3 2 2 2 2 2 4 2 2 1 3 2 1 2 2 1 4 5 4 4 5 8 9 8 9 9 10 8 9 9 10 11 12 9 6 4 4 4 4 5
4 9 3 1 1 1 1 2 2 1 3 3 3 3 4 3 3 2 2 4 2 1 2 3 2 2 2 3 2 2 4 6 7 5 5 10 8 8 8 8 9 9 8 8 9 9 9 10 8 4 3 4 4 3
10 3 3 3 2 2 4 2 2 2 4 4 2 4 2 2 2 3 4 2 1 2 2 2 2 2 3 3 4 4 4 6 4 5 5 7 7 7 7 8 8 8 9 9 9 8 9 12 11 8 4 3 3 3
3 3 4 4 4 3 1 2 1 2 3 3 4 4 3 3 3 3 3 2 2 2 3 4 3 3 3 3 3 3 4 3 3 3 6 6 7 8 8 7 7 6 7 8 8 8 9 10 12 8 8 4 3 3
3 2 5 2 3 3 4 3 2 2 3 3 4 3 3 3 3 2 4 4 3 3 3 4 4 3 3 0 2 3 3 3 3 3 4 4 5 6 7 8 7 6 8 9 10 11 11 10 10 10 10 9 5 2
3 4 5 6 3 4 5 4 5 5 3 3 2 3 2 3 3 4 4 5 4 4 4 4 4 3 2 1 0 3 4 3 2 2 3 4 4 5 7 9 10 8 9 9 10 11 11 11 11 14 11 12 9 3
3 4 3 2 2 2 2 2 3 3 4 5 4 3 3 3 5 2 1 2 4 3 5 4 5 4 5 3 1 2 3 2 1 2 1 2 3 3 4 7 10 9 11 11 10 11 12 12 12 12 11 10 8 6
3 1 3 3 2 1 2 3 4 5 4 3 5 4 7 4 3 3 3 3 5 6 4 3 3 4 5 4 3 3 4 4 4 4 2 3 3 2 6 5 6 15 10 10 10 11 11 11 11 11 11 11 9 8
2 1 3 1 1 2 4 4 4 2 2 3 5 3 3 2 1 0 2 4 5 6 5 5 4 5 5 4 4 4 4 4 6 8 7 5 5 4 7 7 7 8 8 9 12 10 14 11 11 10 11 9 10 8
2 3 3 4 3 5 0 2 2 3 4 3 4 4 3 3 3 3 5 4 4 4 4 5 6 5 4 4 3 3 3 3 3 3 2 2 4 7 6 7 7 8 8 8 10 11 12 9 9 9 10 8 6 6
1 3 3 3 2 2 4 5 6 5 4 4 5 5 5 3 3 4 4 3 4 5 6 5 4 3 5 4 3 3 1 2 3 4 3 1 3 4 5 6 6 6 6 8 8 9 11 10 10 11 12 14 14 11
1 3 4 4 1 2 3 2 3 3 2 3 2 3 3 3 3 2 3 2 3 4 3 4 5 3 3 3 4 3 4 2 2 2 4 4 4 5 5 5 6 6 7 7 8 8 10 11 10 12 12 15 14 14
4 3 3 2 2 4 3 4 3 3 3 2 3 2 3 3 3 2 1 1 3 5 5 4 3 4 5 6 6 4 4 4 4 3 3 3 4 6 5 5 6 7 8 8 8 9 11 11 11 12 13 14 14 14
Wind_Direction
226 225 236 239 248 256 267 276 279 281 297 307 314 324 319 323 328 71 258 194 199 249 279 245 234 197 253 143 201 281 359 345 338 27 324 2 326 329 342 277 296 195 199 219 237 237 269 146 47 222 262 312 295 310
217 215 230 233 236 246 257 268 268 274 286 292 303 317 306 309 311 337 263 204 168 231 254 237 262 248 228 208 151 253 209 327 224 33 350 289 326 326 250 286 322 288 190 212 183 229 240 223 235 270 306 285 305 299
216 211 220 230 226 235 248 263 261 268 276 284 296 307 298 302 304 293 226 260 242 280 300 334 254 260 210 226 197 177 266 212 199 222 222 268 264 158 259 249 257 281 187 237 328 266 252 280 283 290 262 292 304 276
212 211 209 221 226 219 236 253 259 266 274 282 291 291 289 297 303 303 219 207 184 273 293 280 289 294 240 179 186 206 270 13 235 186 234 228 244 190 242 241 227 256 278 243 258 276 292 267 275 288 292 294 304 287
204 202 203 223 227 226 228 250 252 262 274 278 290 286 293 304 304 304 223 222 206 157 271 285 310 247 270 228 204 202 216 219 236 243 224 240 252 276 253 240 247 206 253 247 272 303 289 287 299 285 284 311 313 302
193 193 204 215 228 230 237 247 246 256 270 279 287 293 297 305 331 29 348 130 165 179 267 295 284 289 298 248 208 207 210 207 205 226 239 220 233 164 266 255 251 228 227 246 269 271 293 290 282 267 327 310 303 308
191 193 201 208 211 224 240 244 244 250 269 281 287 290 291 284 194 191 200 177 162 161 255 286 298 289 299 319 330 102 145 198 164 215 232 246 233 192 245 266 310 321 318 286 288 291 296 276 309 312 319 314 308 297
186 194 201 200 202 222 242 247 237 247 277 286 292 294 284 248 219 267 247 216 205 256 244 311 283 323 358 313 326 332 160 194 209 267 258 240 52 258 251 281 308 304 304 301 320 322 271 306 321 313 318 313 313 315
188 191 195 196 206 217 237 240 218 252 283 298 302 289 92 90 171 234 112 133 157 218 306 268 299 295 350 292 261 312 230 223 186 239 242 130 96 26 321 326 318 312 317 314 330 329 322 315 322 327 320 323 326 322
184 186 191 198 204 216 238 202 171 260 298 298 245 185 177 175 309 137 202 191 199 184 207 246 258 271 48 311 293 320 283 252 254 227 105 88 146 360 336 328 316 316 331 308 311 315 319 321 336 336 337 342 334 322
184 181 184 194 201 221 213 151 157 306 295 172 182 188 308 316 84 75 194 221 169 238 206 235 242 272 272 242 268 243 283 254 258 48 294 97 5 344 336 332 333 334 287 317 305 310 311 326 333 333 345 347 338 332
176 174 183 191 198 225 158 151 155 141 204 167 137 104 235 118 106 186 185 153 217 247 208 219 235 215 272 202 260 263 291 254 292 329 33 20 348 337 333 330 333 330 312 333 342 324 328 338 341 340 348 351 333 329
172 171 178 186 200 181 153 157 177 192 139 111 178 142 122 179 135 207 182 209 234 210 234 248 301 255 339 291 277 311 277 321 321 28 25 54 336 331 332 338 331 333 324 323 340 343 340 338 346 351 351 360 349 342
164 167 178 189 192 154 153 164 186 174 157 200 169 158 193 187 231 190 167 177 231 206 291 172 269 25 324 332 268 280 311 342 60 21 350 345 333 327 329 330 333 337 326 321 330 344 340 333 338 352 7 9 358 356
158 165 180 185 155 152 154 174 181 164 183 209 150 189 201 226 109 147 138 65 263 217 46 58 43 95 357 314 14 1 30 39 21 4 315 324 323 323 325 330 327 333 335 335 337 344 340 338 357 7 9 12 9 356
150 156 160 149 149 147 162 161 155 159 228 222 222 147 237 83 359 64 82 266 307 12 101 56 78 61 38 7 41 19 48 37 333 319 315 319 318 320 322 326 329 332 330 335 327 1 349 3 6 354 19 13 15 8
137 123 153 146 144 156 160 139 165 201 209 194 245 184 139 125 158 146 136 264 312 58 70 84 60 54 23 46 45 50 43 312 308 314 314 316 313 314 321 323 329 334 330 346 341 10 353 356 7 18 17 9 6 9
87 146 146 141 145 132 151 213 220 188 213 221 169 190 136 105 109 69 13 338 43 82 70 96 101 52 59 80 345 14 320 317 296 304 308 305 311 316 325 328 331 337 340 355 357 347 348 6 13 16 14 15 17 8
138 140 145 150 157 146 151 180 193 205 210 184 130 101 95 100 66 57 48 20 61 85 91 57 75 82 125 89 60 304 322 320 316 311 301 309 321 331 333 337 339 346 350 357 359 357 346 355 7 3 11 13 23 15
133 140 150 158 121 141 136 173 151 163 179 182 96 94 95 110 121 79 46 43 54 57 52 58 88 123 118 79 284 351 311 306 307 310 324 331 336 341 344 347 343 337 348 355 356 357 1 2 3 3 19 28 23 28
101 143 149 135 2 18 316 137 172 192 145 114 123 108 96 84 76 62 54 21 58 59 104 104 117 125 201 87 78 293 318 326 322 323 329 338 344 348 343 343 342 348 356 359 357 348 360 360 335 345 7 14 20 8
108 151 113 196 206 156 280 236 162 171 93 132 108 103 115 136 131 119 125 58 74 148 136 123 131 121 76 120 36 329 302 329 325 314 348 350 352 350 350 347 348 357 354 351 348 347 343 348 346 339 357 355 11 18
147 156 124 137 125 82 257 102 140 181 128 169 86 100 109 109 111 116 76 110 167 185 130 122 130 89 79 79 52 6 343 344 334 337 3 350 354 349 346 349 352 353 352 348 343 348 343 336 349 351 338 353 343 6
69 120 149 160 156 200 170 193 136 97 93 134 143 118 140 134 153 65 117 166 213 157 136 140 129 96 47 38 25 348 338 328 326 35 11 355 349 347 346 343 358 353 354 331 337 342 345 344 339 344 348 338 16 38
111 198 128 191 203 148 173 148 153 116 148 153 117 121 159 130 98 154 175 193 169 185 151 127 96 107 126 108 326 334 334 13 341 26 4 351 340 338 342 344 351 5 354 344 351 346 342 342 340 342 346 0 341 54
165 201 156 182 157 176 178 152 176 159 135 132 127 113 101 105 145 213 217 172 165 165 145 152 154 127 106 142 3 338 319 324 329 50 4 9 8 8 347 347 342 350 357 341 340 340 338 337 336 336 335 340 347 325
161 211 211 254 170 149 137 84 102 122 163 157 157 129 123 160 215 187 151 184 138 181 152 147 147 144 144 147 148 332 320 316 242 234 279 20 23 30 2 348 339 331 334 336 340 339 333 331 328 323 319 318 315 326
223 220 172 185 171 159 170 173 152 176 178 157 120 156 169 182 179 168 187 171 130 117 107 89 111 129 123 117 94 35 3 352 19 51 28 10 3 18 356 328 322 329 332 332 336 339 335 326 320 318 311 307 306 304
206 225 97 84 295 208 218 200 199 130 107 118 115 120 114 64 23 120 100 113 106 108 107 103 77 102 92 88 75 57 39 28 50 52 38 1 343 329 344 331 331 335 336 333 335 340 334 323 324 325 316 307 297 284
200 161 155 173 205 211 349 10 92 80 36 75 102 100 79 37 352 23 101 98 105 123 136 133 133 125 134 123 113 72 38 51 71 107 101 343 303 306 321 330 334 337 335 338 339 339 346 340 345 351 350 344 343 327
202 176 193 116 232 21 98 88 82 76 53 46 32 76 101 121 50 31 43 49 104 103 108 111 106 132 140 148 144 132 83 19 63 72 89 313 301 320 330 329 323 325 338 342 347 351 352 352 0 355 353 353 345 339
226 249 149 145 195 137 168 77 67 80 83 69 88 75 83 80 80 27 3 59 95 96 103 127 127 138 140 120 110 97 110 117 83 49 28 11 2 356 339 333 331 345 354 353 353 355 359 2 359 0 355 354 347 341
186 205 111 85 154 193 166 108 97 88 93 103 101 88 64 92 133 183 5 59 153 147 138 131 113 111 116 109 113 105 84 69 63 75 30 12 12 16 7 353 352 2 7 10 8 2 4 2 3 2 1 1 358 356